Saint Simons Island, GA

10:25 AM EDT on June 24, 2017 (GMT -0400)
McKinnon

Weather History for KSSI - April, 2013

Change the Weather History Date:

Tuesday, April 2, 2013

  Actual Average Record
Temperature  
Mean Temperature 64 °F 64 °F  
Max Temperature 71 °F 72 °F 89 °F (2012)
Min Temperature 56 °F 55 °F 43 °F (1962)
Degree Days  
Heating Degree Days 1 3  
Month to date heating degree days 1 6  
Since 1 July heating degree days 1229 1434  
Cooling Degree Days 0 2  
Month to date cooling degree days 5 4  
Year to date cooling degree days 44 44  
Growing Degree Days 13 (Base 50)    
Moisture  
Dew Point 50 °F    
Average Humidity 62    
Maximum Humidity 90    
Minimum Humidity 33    
Precipitation  
Precipitation 0.00 in 0.10 in 2.17 in (2009)
Month to date precipitation 0.10 0.21  
Year to date precipitation 6.32 10.78  
Snow  
Snow 0.00 in - 0.00 in ()
Month to date snowfall 0.0  
Since 1 July snowfall 0.0  
Snow Depth 0.00 in    
Sea Level Pressure  
Sea Level Pressure 30.08 in    
Wind  
Wind Speed 7 mph (ENE)    
Max Wind Speed 16 mph    
Max Gust Speed 23 mph    
Visibility 10 miles    
Events      
T = Trace of Precipitation, MM = Missing Value Source: NWS Daily Summary

Daily Weather History Graph

Daily Weather History Graph

Search for Another Location

Airport or City:

Trip Planner

Search our weather history database for the weather conditions in past years. The results will help you decide how hot, cold, wet, or windy it might be!

Date:

Astronomy

Apr. 02, 2013 Rise Set
Actual Time 7:12 AM EDT 7:45 PM EDT
Civil Twilight 6:48 AM EDT 8:10 PM EDT
Nautical Twilight 6:19 AM EDT 8:38 PM EDT
Astronomical Twilight 5:50 AM EDT 9:07 PM EDT
Moon 1:33 AM EDT (4/2) 12:17 PM EDT (4/2)
Length of Visible Light 13h 21m
Length of Day
12h 32m
Waning Gibbous, 56% of the Moon is Illuminated
Apr 2
Waning Gibbous
Apr 3
Last Quarter
Apr 10
New
Apr 18
First Quarter
Apr 25
Full

Hourly Weather History & Observations

Time (EDT) Temp. Dew Point Humidity Pressure Visibility Wind Dir Wind Speed Gust Speed Precip Events Conditions
12:53 AM 68.0 °F 52.0 °F 56% 29.99 in 10.0 mi NW 6.9 mph - N/A   Partly Cloudy
1:53 AM 64.9 °F 52.0 °F 63% 30.00 in 10.0 mi NNW 3.5 mph - N/A   Clear
2:53 AM 63.0 °F 50.0 °F 63% 29.99 in 10.0 mi NNW 3.5 mph - N/A   Clear
3:53 AM 62.1 °F 48.9 °F 62% 30.01 in 10.0 mi NNW 4.6 mph - N/A   Clear
4:53 AM 59.0 °F 48.9 °F 69% 30.02 in 10.0 mi NNW 3.5 mph - N/A   Clear
5:53 AM 57.0 °F 50.0 °F 77% 30.04 in 10.0 mi North 3.5 mph - N/A   Clear
6:53 AM 57.0 °F 46.0 °F 67% 30.06 in 10.0 mi North 6.9 mph - N/A   Clear
7:53 AM 57.9 °F 44.1 °F 60% 30.10 in 10.0 mi North 5.8 mph - N/A   Clear
8:53 AM 64.0 °F 42.1 °F 45% 30.11 in 10.0 mi North 9.2 mph - N/A   Clear
9:53 AM 68.0 °F 39.9 °F 36% 30.12 in 10.0 mi NNE 12.7 mph - N/A   Clear
10:53 AM 69.1 °F 39.0 °F 33% 30.14 in 10.0 mi NE 13.8 mph - N/A   Clear
11:53 AM 69.1 °F 42.1 °F 38% 30.14 in 10.0 mi ENE 11.5 mph - N/A   Clear
12:53 PM 68.0 °F 46.9 °F 47% 30.13 in 10.0 mi East 12.7 mph - N/A   Clear
1:53 PM 68.0 °F 46.0 °F 45% 30.13 in 10.0 mi East 9.2 mph - N/A   Clear
2:53 PM 66.9 °F 48.0 °F 51% 30.10 in 10.0 mi East 11.5 mph - N/A   Clear
3:53 PM 66.9 °F 51.1 °F 57% 30.09 in 10.0 mi SE 12.7 mph - N/A   Clear
4:53 PM 66.0 °F 54.0 °F 65% 30.08 in 10.0 mi ESE 10.4 mph - N/A   Clear
5:53 PM 64.9 °F 55.0 °F 70% 30.08 in 10.0 mi ESE 8.1 mph - N/A   Clear
6:53 PM 64.0 °F 55.0 °F 73% 30.08 in 10.0 mi SSE 6.9 mph - N/A   Clear
7:53 PM 61.0 °F 55.9 °F 83% 30.08 in 10.0 mi SE 3.5 mph - N/A   Clear
8:53 PM 61.0 °F 57.0 °F 87% 30.09 in 10.0 mi SE 4.6 mph - N/A   Clear
9:53 PM 61.0 °F 57.9 °F 90% 30.10 in 10.0 mi SE 3.5 mph - N/A   Clear
10:53 PM 60.1 °F 57.9 °F 93% 30.12 in 10.0 mi SE 3.5 mph - N/A   Clear
11:53 PM 61.0 °F 57.9 °F 90% 30.11 in 10.0 mi ESE 4.6 mph - N/A   Clear